Location: Lhota
(50.0887°N, 14.0116°E)
Time: 07:17:13
(UTC+00:00)

COBE Rocket - Pass Details

Date: 19 May 2025
Orbit: 676 x 772 km, 97.1° (Epoch: 22 June)

Event Time Altitude Azimuth Distance (km) Brightness Sun altitude
Rises 21:50:31 0° 10° (N) 3,228 8.4 -18.2°
Reaches altitude 10° 21:52:50 10° 8° (N) 2,309 7.5 -18.4°
Maximum altitude 21:57:54 67° 287° (WNW) 837 4.3 -18.6°
Enters shadow 22:01:01 24° 210° (SSW) 1,569 5.2 -18.7°
